Regional Weather Roundup
Issued by NWS Upton, NY

Current Version | Previous Version | Graphics & Text | Print | Product List | Glossary Off
Versions: 1 2 3 4 5 6 7 8 9 10 11 12 13 14 15 16 17 18 19 20 21 22 23 24 25 26 27 28 29 30 31 32 33 34 35 36 37 38 39 40 41 42 43 44 45 46 47 48 49 50

171
ASUS41 KOKX 092108
RWROKX

REGIONAL WEATHER ROUNDUP
NATIONAL WEATHER SERVICE NEW YORK NY
400 PM EST FRI DEC 09 2016

NOTE: "FAIR" INDICATES FEW OR NO CLOUDS BELOW 12,000 FEET WITH NO
SIGNIFICANT WEATHER AND/OR OBSTRUCTIONS TO VISIBILITY.

NYZ071-072-176-178-NJZ106-104-092200-
NEW YORK CITY METRO AREA

CITY           SKY/WX    TMP DP  RH WIND       PRES   REMARKS
Central Park   CLOUDY    37  13  37 MISG      30.17R
Wall St Helipt CLOUDY    41  19  41 VRB6G18   30.17R
Bronx Bot Gard   N/A     37  12  35 NW6       30.14R WCI  33
LaGuardia APRT MOCLDY    40  18  41 NW26G32   30.15R WCI  29
Kennedy INTL   MOCLDY    39  11  31 NW30G37   30.16R WCI  27
Breezy Point     N/A     36 N/A N/A NW15G23     N/A  WCI  26
Newark/Liberty PTCLDY    38  10  31 NW20G35   30.16R WCI  28
Teterboro      PTCLDY    37  12  35 NW21      30.15R WCI  26
$$

NYZ177-179-078>081-092200-
LONG ISLAND NEW YORK

CITY           SKY/WX    TMP DP  RH WIND       PRES   REMARKS
Jones Beach      N/A     37 N/A N/A NW26G35     N/A  WCI  26
Matinecock PT    N/A     37 N/A N/A NW30G39     N/A  WCI  25
Farmingdale    PTCLDY    37  13  37 NW16G30   30.13R WCI  28
MacArthur/ISP  MOCLDY    37  14  38 NW18G30   30.11R WCI  27
Shirley        PTCLDY    37  14  38 NW20G29   30.11R WCI  27
Westhampton    CLOUDY    37  15  40 NW13      30.10R WCI  29
Southampton      N/A     37  23  56 W10       30.06R WCI  30
Bridgehampton  NOT AVBL
East Hampton   CLOUDY    36  15  42 NW10      30.07R WCI  28
Montauk          N/A     37  18  46 NW17G23   30.07R WCI  27
$$

NYZ052-065-067-092200-
HUDSON VALLEY

CITY           SKY/WX    TMP DP  RH WIND       PRES   REMARKS
White Plains   PTCLDY    34  13  41 W30G40    30.11R WCI  20
Newburgh       PTCLDY    34  14  44 W23G37    30.14R WCI  22
Montgomery     PTCLDY    33  13  43 NW15G22   30.13R WCI  23
Poughkeepsie   CLOUDY    33  11  39 NW17G25   30.13R WCI  22
Albany         MOCLDY    28   9  44 NW10      30.16R WCI  19
$$

NJZ001-105-106-008-010-013-015-019>022-104-092200-
NEW JERSEY

CITY           SKY/WX    TMP DP  RH WIND       PRES   REMARKS
Newark/Liberty PTCLDY    38  10  31 NW20G35   30.16R WCI  28
Teterboro      PTCLDY    37  12  35 NW21      30.15R WCI  26
Caldwell       CLOUDY    37  12  35 NW9G18    30.17R WCI  30
Somerville     MOCLDY    37  15  40 NW7G20    30.17R WCI  32
Linden         MOCLDY   N/A N/A N/A NW12G20   30.17R
Sussex         PTCLDY    33  14  45 W16G26    30.15R WCI  23
Andover          N/A     34  11  38 MISG      30.15R
Trenton        CLOUDY    36  17  46 NW14G21   30.20R WCI  27
Millville      MOCLDY    38  18  44 NW17G25   30.25R WCI  28
Atlantic City  MOCLDY    36  17  46 W14       30.23R WCI  27
Wrightstown    MOCLDY    36  18  47 NW18G24   30.18R WCI  26
Toms River     MOCLDY    36  18  48 NW13      30.21R WCI  27
Belmar         MOCLDY    36  16  44 W16G28    30.18R WCI  26
$$

PAZ047>061-062-071-092200-
EASTERN PENNSYLVANIA

CITY           SKY/WX    TMP DP  RH WIND       PRES   REMARKS
Philadelphia   CLOUDY    38  15  39 W17G30    30.25R WCI  28
Allentown      MOCLDY    33  21  61 W13       30.20R WCI  24
Scranton       CLOUDY    31  18  58 N15G23    30.18R WCI  20
$$

CTZ002-004>006-009-010-012-RIZ004-006-007-MAZ004-011-015-092200-
SOUTHERN NEW ENGLAND
 IN CT

CITY           SKY/WX    TMP DP  RH WIND       PRES   REMARKS
Bradley INTL   PTCLDY    31  11  43 NW13G24   30.09R WCI  21
Hartford       CLEAR     33  14  45 NW13G22   30.10R WCI  24
Danbury        MOCLDY    33  10  38 W9G18     30.11R WCI  25
Wtrbury/Oxford PTCLDY    34  10  37 N12G21    30.07R WCI  25
Bridgeport     CLOUDY    37  12  35 W18G28    30.11R WCI  27
Meriden        MOCLDY    36  13  38 NW13G20   30.10R WCI  27
New Haven      MOCLDY    37  16  42 NW12G23   30.10R WCI  29
Chester          N/A     34  14  44 NW10      30.06R WCI  26
Groton         CLEAR     39  15  37 NW13G25   30.06R WCI  31
Wilimantic     PTCLDY    34  13  41 W15G25    30.07R WCI  24

 IN RI

CITY           SKY/WX    TMP DP  RH WIND       PRES   REMARKS
Providence     PTCLDY    34  11  38 W17G26    30.04R WCI  23
Block Island   PTCLDY    36  15  42 NW15G29   30.05R WCI  27
Westerly       CLEAR     36  11  35 NW10G22   30.06R WCI  28
 IN MA

CITY           SKY/WX    TMP DP  RH WIND       PRES   REMARKS
Boston         PTCLDY    34  11  38 NW17      30.02R WCI  23
Worcester      CLEAR     28   8  43 W17G24    29.99R WCI  16
Westfield      CLEAR     30  11  45 NW18G25   30.09R WCI  18
Provincetown   MOCLDY    35  16  45 NW18G28   30.00R WCI  24
Nantucket      CLOUDY    36  16  44 NW17G24   30.00R WCI  26
$$

ANZ330-335-338-340-345-350-353-355-092200-
COASTAL MARINE OBSERVATIONS


STATION/POSITION TIME  SKY/WX   TEMP    WIND        PRES    VSBY  WAVE
                                AIR SEA DIR/SP/G                  HT/PER
                 (UTC)          (F)     (DEG/KT/KT) (MB)    (MI)  (FT/S)
NY HARB ENTRANCE 1950            40 51  290/ 23/ 29 1019.2          4/ 5
20 S FIRE ISLAND 1950            40 53  310/ 23/ 29 1018.6          6/ 6
GREAT SOUTH BAY  2030            38 41                N/A
23 SSW MONTAUK P 1950            39 54  290/ 19/ 27 1017.7          6/ 6
15 E BARNEGAT LI 2030               52                N/A           5/ 5
HUDSON CANYON    1950            41 56              1018.9          9/ 8
KINGS POINT      2042            38 46              1020.4
EXECUTION ROCKS  2045            39     300/ 19/ 27   N/A
CENTRAL LI SOUND NOT AVBL
EASTERN LI SOUND NOT AVBL
ROBBINS REEF     2042            38     290/ 25/ 29 1020.8
$$


>>>>>>>>>>>>>>>>>>>>>>>>>>>> KEY <<<<<<<<<<<<<<<<<<<<<<<<<<<
>                                                          <
>     SKY/WX - Sky Condition/Present Weather               <
>     TMP    - Temperature in Fahrenheit                   <
>     DP     - Dew Point in Fahrenheit                     <
>     RH     - Relative Humidity in Percent                <
>     WIND   - Direction (from) and Speed in MPH           <
>     PRES   - Mean Sea Level Pressure (inches of Hg)      <
>     WCI    - Wind Chill Index                            <
>     VSB    - VISIBILITY IN MILES                         <
>     HX     - HEAT INDEX                                  <
>     TC     - TEMPERATURE IN CELSIUS                      <
>     VRB    - VARIABLE WIND DIRECTION                     <
>                                                          <
>>>>>>>>>>>>>>>>>>>>>>>>>>>> KEY <<<<<<<<<<<<<<<<<<<<<<<<<<<




USA.gov is the U.S. government's official web portal to all federal, state and local government web resources and services.